Location: Pian di Sc�
(43.6333°N, 11.5500°E)
Time: 14:11:06
(UTC+00:00)

Nadezhda 4 Rocket - Pass Details

Date: 07 August 2020
Orbit: 949 x 993 km, 82.9° (Epoch: 25 September)

Event Time Altitude Azimuth Distance (km) Brightness Sun altitude
Rises 00:26:25 0° 348° (NNW) 3,710 7.9 -28.1°
Reaches altitude 10° 00:28:59 10° 346° (NNW) 2,753 7.0 -28.0°
Maximum altitude 00:35:11 63° 267° (W) 1,091 4.0 -27.6°
Enters shadow 00:35:23 62° 257° (WSW) 1,094 4.0 -27.6°
